Location: Unspecified
(0.0000°N, 0.0000°E)
Time: 01:27:35
(UTC+00:00)

Altair - Pass Details

Date: 20 November 2019
Orbit: 1502 x 1682 km, 47.2° (Epoch: 10 December)

Event Time Altitude Azimuth Distance (km) Brightness Sun altitude
Rises 09:58:32 0° 340° (NNW) 4,719 9.8 57.2°
Reaches altitude 10° 10:02:04 10° 350° (N) 3,764 9.4 57.9°
Maximum altitude 10:10:16 32° 50° (NE) 2,522 9.2 59.5°
Drops below altitude 10° 10:18:41 10° 108° (ESE) 3,892 10.2 61.0°
Sets 10:22:22 0° 118° (ESE) 4,901 10.5 61.7°
